sat.trackr.live / text

‹ back to catalog

STARLINK-11417 [DTC]

NORAD 62983 · 2025-031C

PAYLOAD ACTIVE UNKNOWN

§ Identity

Operator
Country
US
Launch date
2025-02-11
Launch site
AFETR
Launch vehicle
Mass (kg)
RCS (m²)

Purposes: comms

External: N2YO · Heavens-Above · Gunter

§ Orbital elements

Epoch: 2026-05-25T00:37:32.753856Z

Period
91.67 min
Inclination
42.9996°
Eccentricity
0.0001665
Mean motion
15.70877670 rev/d
Perigee alt
355.3 km
Apogee alt
357.5 km
Semi-major
6,734.5 km
B*
1.2694e-3
RAAN
261.7324°
Arg perigee
41.9222°
Mean anomaly
318.1773°
Rev number
7,474

§ Raw data

STARLINK-11417 [DTC]1 62983U 25031C   26145.02607354  .00165993  00000+0  12694-2 0  99902 62983  42.9996 261.7324 0001665  41.9222 318.1773 15.70877670 74742

JSON: /api/v1/satellites/62983 · /tle

For live sub-satellite position, see the globe view (requires WebGL).

§ Visibility from observer

Set your observer location to see the next 7 days of passes ≥ 10°. The values pass through the URL so the page stays shareable.

No JS? Fill the form by hand. The geolocation button needs JavaScript.